Location: Bottenau
(48.5138°N, 8.0462°E)
Time: 09:31:10
(UTC+00:00)

Cosmos 1633 - Pass Details

Date: 18 April 2021
Orbit: 461 x 478 km, 82.5° (Epoch: 05 May)

Event Time Altitude Azimuth Distance (km) Brightness Sun altitude
Rises 20:58:04 0° 342° (NNW) 2,540 7.4 -21.9°
Reaches altitude 10° 21:00:17 10° 333° (NNW) 1,653 6.3 -22.1°
Maximum altitude 21:03:35 34° 268° (W) 801 3.9 -22.5°
Enters shadow 21:04:15 31° 243° (WSW) 852 3.8 -22.5°
